Flag for Australia Weather past 2 weeks in Dubbo, New South Wales, Australia

Now
66 °F

Scattered clouds.


Feels Like: 66 °F
Forecast: 49 / 68 °F
Wind: 10 mph from Southeast

Location: Dubbo Airport

Current Time: Apr 28, 2015 at 1:15:35 PM

Latest Report: Apr 28, 2015 at 12:30 PM


Visibility: N/A

Pressure: 30.24 "Hg

Humidity: 46%

Dew point: 45 °F

Location of DubboLocation

Historic Weather in Dubbo — Graph

°F

Dubbo temperature yesterday

Maximum temperature yesterday: 63 °F (at 1:00 PM)
Minimum temperature yesterday: 41 °F (at 11:00 PM)
Average temperature yesterday: 52 °F

Past Weeks' High & Low Weather Summary

 TemperatureHumidityPressure
High88 °F (Apr 16, 2:00 PM)100% (Apr 18, 6:00 PM)30.30 "Hg (Apr 18, 6:00 PM)
Low39 °F (Apr 28, 2:30 AM)30% (Apr 13, 3:30 PM)29.71 "Hg (Apr 25, 1:00 PM)
Average62 °F72%30.06 "Hg
* Reported Apr 13 12:00 Noon — Apr 28 12:00 Noon, Dubbo, Weather by CustomWeather, © 2015

Note: Actual official high and low records may vary slightly from our data, if they occured in-between our weather recording intervals... More about our weather records

Advertising

Dubbo weather history for previous 24 hours

 ConditionsComfort  
Time TempWeatherWind HumidityBarometerVisibility
12:00 PM
Tue, Apr 28
64 °FSunny.10 mph49%30.24 "HgN/A
11:30 AM64 °FSunny.13 mph52%30.27 "HgN/A
11:00 AM63 °FSunny.12 mph64%30.27 "HgN/A
10:30 AM61 °FSunny.9 mph63%30.27 "HgN/A
10:00 AM57 °FSunny.8 mph72%30.27 "HgN/A
9:30 AM54 °FSunny.10 mph72%30.30 "HgN/A
9:00 AM52 °FSunny.13 mph77%30.27 "HgN/A
8:30 AM50 °FSunny.13 mph82%30.27 "HgN/A
8:00 AM46 °FSunny.13 mph87%30.27 "HgN/A
7:30 AM45 °FSunny.13 mph87%30.27 "HgN/A
7:00 AM43 °FSunny.13 mph93%30.24 "HgN/A
6:30 AM43 °FSunny.13 mph93%30.24 "HgN/A
6:00 AM41 °FSunny.13 mph100%30.24 "HgN/A
5:30 AM41 °FClear.10 mph93%30.24 "HgN/A
5:00 AM39 °FClear.9 mph100%30.21 "HgN/A
4:30 AM39 °FClear.9 mph100%30.21 "HgN/A
4:00 AM39 °FClear.10 mph100%30.21 "HgN/A
3:30 AM39 °FClear.9 mph93%30.21 "HgN/A
3:00 AM41 °FClear.9 mph93%30.21 "HgN/A
2:30 AM39 °FClear.7 mph100%30.21 "HgN/A
2:00 AM41 °FClear.8 mph93%30.21 "HgN/A
1:30 AM41 °FClear.5 mph87%30.21 "HgN/A
1:00 AM43 °FClear.8 mph87%30.21 "HgN/A
12:00 AM43 °FClear.7 mph87%30.21 "HgN/A
11:30 PM
Mon, Apr 27
43 °FClear.6 mph93%30.21 "HgN/A
11:00 PM41 °FClear.7 mph87%30.21 "HgN/A
10:30 PM43 °FClear.5 mph87%30.21 "HgN/A
10:00 PM43 °FClear.5 mph81%30.21 "HgN/A
9:00 PM46 °FClear.7 mph76%30.21 "HgN/A
8:30 PM48 °FClear.6 mph76%30.21 "HgN/A
8:00 PM50 °FClear.8 mph71%30.21 "HgN/A
7:00 PM50 °FClear.7 mph71%30.18 "HgN/A
6:30 PM50 °FClear.7 mph71%30.18 "HgN/A
6:00 PM54 °FClear.7 mph63%30.15 "HgN/A
5:30 PM55 °FClear.10 mph59%30.15 "HgN/A
5:00 PM59 °FClear.10 mph51%30.15 "HgN/A
4:30 PM61 °FScattered clouds.13 mph48%30.12 "HgN/A
4:00 PM63 °FScattered clouds.10 mph49%30.12 "HgN/A
3:30 PM63 °FPartly sunny.12 mph49%30.12 "HgN/A
3:00 PM63 °FScattered clouds.8 mph52%30.12 "HgN/A
2:30 PM63 °FScattered clouds.10 mph52%30.12 "HgN/A
2:00 PM63 °FScattered clouds.9 mph56%30.12 "HgN/A
1:30 PM63 °FSunny.12 mph52%30.12 "HgN/A
1:00 PM63 °FPartly sunny.9 mph56%30.12 "HgN/A
Weather by CustomWeather, © 2015

See weather overviewHow to use our weather pages